Left ArrowRight Arrow

Hourly Observations for June 16, 2024

Temp ( °F °C ) Dew Point ( °F °C ) Humidity (%) Winds ( mph kmh ) Pressure ( in mb ) Visibility ( mi km ) Precip ( " mm )
12:53 am 00:53 Mostly Cloudy 76 24.4 51 10.6 42 42 SSE 10 17 29.95 1014 10 16 0.00 0.00
1:53 am 01:53 Mostly Cloudy 75 23.9 50 10 41 41 SSE 10 17 29.94 1014 10 16 0.00 0.00
2:53 am 02:53 Mostly Cloudy 74 23.3 50 10 43 43 SSE 9 15 29.93 1014 10 16 0.00 0.00
3:53 am 03:53 Mostly Cloudy 73 22.8 50 10 44 44 S 10 17 29.92 1013 10 16 0.00 0.00
4:53 am 04:53 Clear 72 22.2 50 10 46 46 SSE 8 13 29.93 1014 10 16 0.00 0.00
5:53 am 05:53 Partly Cloudy 71 21.7 50 10 47 47 S 10 17 29.93 1014 10 16 0.00 0.00
6:53 am 06:53 Mostly Cloudy 73 22.8 50 10 44 44 S 14 22 29.92 1013 10 16 0.00 0.00
7:53 am 07:53 Mostly Cloudy 76 24.4 50 10 40 40 S 15 24 29.92 1013 10 16 0.00 0.00
8:53 am 08:53 Mostly Cloudy 78 25.6 53 11.7 42 42 S 17 28 29.91 1013 10 16 0.00 0.00
9:53 am 09:53 Mostly Cloudy 81 27.2 56 13.3 42 42 S 20 31 29.88 1012 10 16 0.00 0.00
10:53 am 10:53 Mostly Cloudy 85 29.4 59 15 42 42 S 15 24 29.87 1012 10 16 0.00 0.00
11:53 am 11:53 Sunny 88 31.1 62 16.7 42 42 S 16 26 29.86 1011 10 16 0.00 0.00
12:53 pm 12:53 Mostly Cloudy 91 32.8 65 18.3 42 42 SSW 15 24 29.84 1011 10 16 0.00 0.00
1:53 pm 13:53 Mostly Cloudy 93 33.9 65 18.3 40 40 S 20 31 29.81 1009 10 16 0.00 0.00
2:53 pm 14:53 Mostly Cloudy 94 34.4 64 17.8 37 37 SSW 22 35 29.79 1009 10 16 0.00 0.00
3:53 pm 15:53 Mostly Cloudy 95 35 64 17.8 36 36 SSW 20 31 29.76 1008 10 16 0.00 0.00
4:53 pm 16:53 Mostly Cloudy 94 34.4 65 18.3 39 39 SW 21 33 29.78 1009 10 16 0.00 0.00
5:35 pm 17:35 Windy with Storms Likely 89 31.7 63 17.2 42 42 W 25 41 29.81 1010 10 16 0.01 0.13
5:53 pm 17:53 Mostly Cloudy 84 28.9 63 17.2 49 49 W 21 33 29.83 1010 10 16 0.01 0.13
6:53 pm 18:53 Mostly Cloudy with Light Rain 83 28.3 63 17.2 51 51 W 9 15 29.82 1010 10 16 0.01 0.13
7:53 pm 19:53 Mostly Cloudy 82 27.8 62 16.7 51 51 VRB 6 9 29.82 1010 10 16 0.01 0.13
8:53 pm 20:53 Mostly Cloudy 83 28.3 62 16.7 49 49 SSW 7 11 29.81 1009 10 16 0.00 0.00
9:53 pm 21:53 Mostly Cloudy 82 27.8 62 16.7 51 51 S 5 7 29.83 1010 10 16 0.00 0.00
10:53 pm 22:53 Partly Cloudy 81 27.2 62 16.7 53 53 SE 6 9 29.85 1011 10 16 0.00 0.00
11:53 pm 23:53 Partly Cloudy 82 27.8 63 17.2 53 53 S 7 11 29.86 1011 10 16 0.00 0.00

Powered by Vaisala Xweather